Time,TemperatureF,DewpointF,PressureIn,WindDirection,WindDirectionDegrees,WindSpeedMPH,WindSpeedGustMPH,Humidity,HourlyPrecipIn,Conditions,Clouds,dailyrainin,SolarRadiationWatts/m^2,SoftwareType,DateUTC
2013-06-27 00:02:00,61.0,56.0,-100.00,NW,316,4.0,10.0,83,0.00,,,0.00,1.000000,,2013-06-27 07:02:00,
2013-06-27 00:12:00,61.0,56.0,-100.00,NW,316,4.0,10.0,83,0.00,,,0.00,1.000000,,2013-06-27 07:12:00,
2013-06-27 00:22:00,61.0,56.0,-100.00,NW,316,4.0,10.0,83,0.00,,,0.00,1.000000,,2013-06-27 07:22:00,
2013-06-27 00:33:00,59.0,57.0,-100.00,NNW,329,6.0,10.0,93,0.00,,,0.00,0.000000,,2013-06-27 07:33:00,
2013-06-27 01:01:00,59.0,57.0,-100.00,NNW,329,6.0,10.0,93,0.00,,,0.00,0.000000,,2013-06-27 08:01:00,
2013-06-27 01:11:00,59.0,57.0,-100.00,NNW,329,6.0,10.0,93,0.00,,,0.00,0.000000,,2013-06-27 08:11:00,
2013-06-27 01:22:00,59.0,57.0,-100.00,NNW,329,6.0,10.0,93,0.00,,,0.00,0.000000,,2013-06-27 08:22:00,
2013-06-27 01:33:00,60.0,59.0,-100.00,NW,321,7.0,10.0,95,0.00,,,0.00,1.000000,,2013-06-27 08:33:00,
2013-06-27 01:52:00,60.0,59.0,-100.00,NW,321,7.0,10.0,95,0.00,,,0.00,1.000000,,2013-06-27 08:52:00,
2013-06-27 02:02:00,60.0,59.0,-100.00,NW,321,7.0,10.0,95,0.00,,,0.00,1.000000,,2013-06-27 09:02:00,
2013-06-27 02:11:00,60.0,59.0,-100.00,NW,321,7.0,10.0,95,0.00,,,0.00,1.000000,,2013-06-27 09:11:00,
2013-06-27 02:22:00,60.0,59.0,-100.00,NW,321,7.0,10.0,95,0.00,,,0.00,1.000000,,2013-06-27 09:22:00,
2013-06-27 03:01:00,63.0,56.0,-100.00,SE,139,0.0,10.0,78,0.00,,,0.00,1.000000,,2013-06-27 10:01:00,
2013-06-27 03:11:00,63.0,56.0,-100.00,SE,139,0.0,10.0,78,0.00,,,0.00,1.000000,,2013-06-27 10:11:00,
2013-06-27 03:22:00,63.0,56.0,-100.00,SE,139,0.0,10.0,78,0.00,,,0.00,1.000000,,2013-06-27 10:22:00,
2013-06-27 03:32:00,63.0,56.0,-100.00,SE,139,0.0,10.0,78,0.00,,,0.00,1.000000,,2013-06-27 10:32:00,
2013-06-27 03:33:00,63.0,56.0,-100.00,ENE,76,0.0,6.0,78,0.00,,,0.00,0.000000,,2013-06-27 10:33:00,
2013-06-27 03:54:00,63.0,56.0,-100.00,ENE,76,0.0,6.0,78,0.00,,,0.00,0.000000,,2013-06-27 10:54:00,
2013-06-27 04:01:00,63.0,56.0,-100.00,ENE,76,0.0,6.0,78,0.00,,,0.00,0.000000,,2013-06-27 11:01:00,
2013-06-27 04:11:00,63.0,56.0,-100.00,ENE,76,0.0,6.0,78,0.00,,,0.00,0.000000,,2013-06-27 11:11:00,
2013-06-27 04:21:00,63.0,56.0,-100.00,ENE,76,0.0,6.0,78,0.00,,,0.00,0.000000,,2013-06-27 11:21:00,
2013-06-27 04:33:00,61.0,56.0,-100.00,North,5,0.0,0.0,85,0.00,,,0.00,1.000000,,2013-06-27 11:33:00,
2013-06-27 05:01:00,61.0,56.0,-100.00,North,5,0.0,0.0,85,0.00,,,0.00,1.000000,,2013-06-27 12:01:00,
2013-06-27 05:11:00,61.0,56.0,-100.00,North,5,0.0,0.0,85,0.00,,,0.00,1.000000,,2013-06-27 12:11:00,
2013-06-27 05:22:00,61.0,56.0,-100.00,North,5,0.0,0.0,85,0.00,,,0.00,1.000000,,2013-06-27 12:22:00,
2013-06-27 05:33:00,62.0,57.0,-100.00,East,93,0.0,0.0,83,0.00,,,0.00,1.000000,,2013-06-27 12:33:00,
2013-06-27 06:01:00,62.0,57.0,-100.00,East,93,0.0,0.0,83,0.00,,,0.00,1.000000,,2013-06-27 13:01:00,
2013-06-27 06:11:00,62.0,57.0,-100.00,East,93,0.0,0.0,83,0.00,,,0.00,1.000000,,2013-06-27 13:11:00,
2013-06-27 06:22:00,62.0,57.0,-100.00,East,93,0.0,0.0,83,0.00,,,0.00,1.000000,,2013-06-27 13:22:00,
2013-06-27 06:33:00,62.0,56.0,-100.00,SSE,167,0.0,0.0,82,0.00,,,0.00,8.000000,,2013-06-27 13:33:00,
2013-06-27 07:01:00,62.0,56.0,-100.00,SSE,167,0.0,0.0,82,0.00,,,0.00,8.000000,,2013-06-27 14:01:00,
2013-06-27 07:11:00,62.0,56.0,-100.00,SSE,167,0.0,0.0,82,0.00,,,0.00,8.000000,,2013-06-27 14:11:00,
2013-06-27 07:22:00,62.0,56.0,-100.00,SSE,167,0.0,0.0,82,0.00,,,0.00,8.000000,,2013-06-27 14:22:00,
2013-06-27 07:33:00,66.0,60.0,-100.00,West,273,0.0,0.0,80,0.00,,,-99.99,133.000000,,2013-06-27 14:33:00,
2013-06-27 08:01:00,66.0,60.0,-100.00,West,273,0.0,0.0,80,0.00,,,-99.99,133.000000,,2013-06-27 15:01:00,
2013-06-27 08:11:00,66.0,60.0,-100.00,West,273,0.0,0.0,80,0.00,,,-99.99,133.000000,,2013-06-27 15:11:00,
2013-06-27 08:22:00,66.0,60.0,-100.00,West,273,0.0,0.0,80,0.00,,,-99.99,133.000000,,2013-06-27 15:22:00,
2013-06-27 08:33:00,67.0,60.0,-100.00,SW,230,0.0,8.0,77,0.00,,,0.00,326.000000,,2013-06-27 15:33:00,
2013-06-27 09:02:00,67.0,60.0,-100.00,SW,230,0.0,8.0,77,0.00,,,0.00,326.000000,,2013-06-27 16:02:00,
2013-06-27 09:11:00,67.0,60.0,-100.00,SW,230,0.0,8.0,77,0.00,,,0.00,326.000000,,2013-06-27 16:11:00,
2013-06-27 09:23:00,67.0,60.0,-100.00,SW,230,0.0,8.0,77,0.00,,,0.00,326.000000,,2013-06-27 16:23:00,
2013-06-27 09:33:00,71.0,59.0,-100.00,West,268,0.0,5.0,66,0.00,,,0.00,510.000000,,2013-06-27 16:33:00,
2013-06-27 09:53:00,71.0,59.0,-100.00,West,268,0.0,5.0,66,0.00,,,0.00,510.000000,,2013-06-27 16:53:00,
2013-06-27 10:01:00,71.0,59.0,-100.00,West,268,0.0,5.0,66,0.00,,,0.00,510.000000,,2013-06-27 17:01:00,
2013-06-27 10:11:00,71.0,59.0,-100.00,West,268,0.0,5.0,66,0.00,,,0.00,510.000000,,2013-06-27 17:11:00,
2013-06-27 10:22:00,71.0,59.0,-100.00,West,268,0.0,5.0,66,0.00,,,0.00,510.000000,,2013-06-27 17:22:00,
2013-06-27 10:53:00,71.0,57.0,-100.00,West,271,10.0,16.0,62,0.00,,,0.00,679.000000,,2013-06-27 17:53:00,
2013-06-27 11:01:00,71.0,57.0,-100.00,West,271,10.0,16.0,62,0.00,,,0.00,679.000000,,2013-06-27 18:01:00,
2013-06-27 11:11:00,71.0,57.0,-100.00,West,271,10.0,16.0,62,0.00,,,0.00,679.000000,,2013-06-27 18:11:00,
2013-06-27 11:22:00,71.0,57.0,-100.00,West,271,10.0,16.0,62,0.00,,,0.00,679.000000,,2013-06-27 18:22:00,
2013-06-27 11:32:00,71.0,57.0,-100.00,West,271,10.0,16.0,62,0.00,,,0.00,679.000000,,2013-06-27 18:32:00,
2013-06-27 11:33:00,74.0,56.0,-100.00,West,276,12.0,19.0,53,0.00,,,0.00,820.000000,,2013-06-27 18:33:00,
2013-06-27 12:33:00,76.0,55.0,-100.00,West,271,12.0,19.0,48,0.00,,,0.00,916.000000,,2013-06-27 19:33:00,
2013-06-27 13:01:00,76.0,55.0,-100.00,West,271,12.0,19.0,48,0.00,,,0.00,916.000000,,2013-06-27 20:01:00,
2013-06-27 13:11:00,76.0,55.0,-100.00,West,271,12.0,19.0,48,0.00,,,0.00,916.000000,,2013-06-27 20:11:00,
2013-06-27 13:22:00,76.0,55.0,-100.00,West,271,12.0,19.0,48,0.00,,,0.00,916.000000,,2013-06-27 20:22:00,
2013-06-27 13:33:00,78.0,54.0,-100.00,West,259,11.0,22.0,43,0.00,,,0.00,960.000000,,2013-06-27 20:33:00,
2013-06-27 13:55:00,78.0,54.0,-100.00,West,259,11.0,22.0,43,0.00,,,0.00,960.000000,,2013-06-27 20:55:00,
2013-06-27 14:02:00,78.0,54.0,-100.00,West,259,11.0,22.0,43,0.00,,,0.00,960.000000,,2013-06-27 21:02:00,
2013-06-27 14:13:00,78.0,54.0,-100.00,West,259,11.0,22.0,43,0.00,,,0.00,960.000000,,2013-06-27 21:13:00,
2013-06-27 14:23:00,78.0,54.0,-100.00,West,259,11.0,22.0,43,0.00,,,0.00,960.000000,,2013-06-27 21:23:00,
2013-06-27 14:33:00,79.0,53.0,-100.00,West,265,13.0,23.0,40,0.00,,,0.00,958.000000,,2013-06-27 21:33:00,
2013-06-27 14:55:00,79.0,53.0,-100.00,West,265,13.0,23.0,40,0.00,,,0.00,958.000000,,2013-06-27 21:55:00,
2013-06-27 15:13:00,79.0,53.0,-100.00,West,265,13.0,23.0,40,0.00,,,0.00,958.000000,,2013-06-27 22:13:00,
2013-06-27 15:22:00,79.0,53.0,-100.00,West,265,13.0,23.0,40,0.00,,,0.00,958.000000,,2013-06-27 22:22:00,
2013-06-27 15:33:00,77.0,51.0,-100.00,West,266,14.0,22.0,41,0.00,,,0.00,905.000000,,2013-06-27 22:33:00,
2013-06-27 15:57:00,77.0,51.0,-100.00,West,266,14.0,22.0,41,0.00,,,0.00,905.000000,,2013-06-27 22:57:00,
2013-06-27 16:03:00,77.0,51.0,-100.00,West,266,14.0,22.0,41,0.00,,,0.00,905.000000,,2013-06-27 23:03:00,
2013-06-27 16:14:00,77.0,51.0,-100.00,West,266,14.0,22.0,41,0.00,,,0.00,905.000000,,2013-06-27 23:14:00,
2013-06-27 16:23:00,77.0,51.0,-100.00,West,266,14.0,22.0,41,0.00,,,0.00,905.000000,,2013-06-27 23:23:00,
2013-06-27 16:33:00,77.0,51.0,-100.00,West,260,7.0,28.0,40,0.00,,,0.00,799.000000,,2013-06-27 23:33:00,
2013-06-27 17:04:00,77.0,51.0,-100.00,West,260,7.0,28.0,40,0.00,,,0.00,799.000000,,2013-06-28 00:04:00,
2013-06-27 17:13:00,77.0,51.0,-100.00,West,260,7.0,28.0,40,0.00,,,0.00,799.000000,,2013-06-28 00:13:00,
2013-06-27 17:25:00,77.0,51.0,-100.00,West,260,7.0,28.0,40,0.00,,,0.00,799.000000,,2013-06-28 00:25:00,
2013-06-27 17:33:00,76.0,50.0,-100.00,West,264,13.0,27.0,40,0.00,,,0.00,648.000000,,2013-06-28 00:33:00,
2013-06-27 17:56:00,76.0,50.0,-100.00,West,264,13.0,27.0,40,0.00,,,0.00,648.000000,,2013-06-28 00:56:00,
2013-06-27 18:04:00,76.0,50.0,-100.00,West,264,13.0,27.0,40,0.00,,,0.00,648.000000,,2013-06-28 01:04:00,
2013-06-27 18:12:00,76.0,50.0,-100.00,West,264,13.0,27.0,40,0.00,,,0.00,648.000000,,2013-06-28 01:12:00,
2013-06-27 18:23:00,76.0,50.0,-100.00,West,264,13.0,27.0,40,0.00,,,0.00,648.000000,,2013-06-28 01:23:00,
2013-06-27 18:33:00,75.0,50.0,-100.00,West,267,12.0,26.0,42,0.00,,,0.00,464.000000,,2013-06-28 01:33:00,
2013-06-27 18:56:00,75.0,50.0,-100.00,West,267,12.0,26.0,42,0.00,,,0.00,464.000000,,2013-06-28 01:56:00,
2013-06-27 19:04:00,75.0,50.0,-100.00,West,267,12.0,26.0,42,0.00,,,0.00,464.000000,,2013-06-28 02:04:00,
2013-06-27 19:14:00,75.0,50.0,-100.00,West,267,12.0,26.0,42,0.00,,,0.00,464.000000,,2013-06-28 02:14:00,
2013-06-27 19:23:00,75.0,50.0,-100.00,West,267,12.0,26.0,42,0.00,,,0.00,464.000000,,2013-06-28 02:23:00,
2013-06-27 19:33:00,73.0,50.0,-100.00,West,269,0.0,24.0,45,0.00,,,0.00,277.000000,,2013-06-28 02:33:00,
2013-06-27 19:57:00,73.0,50.0,-100.00,West,269,0.0,24.0,45,0.00,,,0.00,277.000000,,2013-06-28 02:57:00,
2013-06-27 20:04:00,73.0,50.0,-100.00,West,269,0.0,24.0,45,0.00,,,0.00,277.000000,,2013-06-28 03:04:00,
2013-06-27 20:14:00,73.0,50.0,-100.00,West,269,0.0,24.0,45,0.00,,,0.00,277.000000,,2013-06-28 03:14:00,
2013-06-27 20:23:00,73.0,50.0,-100.00,West,269,0.0,24.0,45,0.00,,,0.00,277.000000,,2013-06-28 03:23:00,
2013-06-27 20:33:00,68.0,51.0,-100.00,NW,311,0.0,15.0,55,0.00,,,0.00,90.000000,,2013-06-28 03:33:00,
2013-06-27 20:56:00,68.0,51.0,-100.00,NW,311,0.0,15.0,55,0.00,,,0.00,90.000000,,2013-06-28 03:56:00,
2013-06-27 21:02:00,68.0,51.0,-100.00,NW,311,0.0,15.0,55,0.00,,,0.00,90.000000,,2013-06-28 04:02:00,
2013-06-27 21:11:00,68.0,51.0,-100.00,NW,311,0.0,15.0,55,0.00,,,0.00,90.000000,,2013-06-28 04:11:00,
2013-06-27 21:22:00,68.0,51.0,-100.00,NW,311,0.0,15.0,55,0.00,,,0.00,90.000000,,2013-06-28 04:22:00,
2013-06-27 22:11:00,74.0,51.0,-100.00,NNW,339,0.0,8.0,44,0.00,,,0.00,2.000000,,2013-06-28 05:11:00,